Location: Écuvilly
(49.6505°N, 2.9206°E)
Time: 17:54:39
(UTC+00:00)

SL-19 R/B - Pass Details

Date: 17 November 2025
Orbit: 795 x 1008 km, 99.6° (Epoch: 09 December)

Event Time Altitude Azimuth Distance (km) Brightness Sun altitude
Rises 18:08:10 0° 162° (SSE) 3,307 7.2 -20.0°
Reaches altitude 10° 18:10:29 10° 162° (SSE) 2,369 6.4 -20.4°
Maximum altitude 18:15:41 90° 263° (W) 803 4.0 -21.3°
Drops below altitude 10° 18:20:57 10° 344° (NNW) 2,392 6.7 -22.1°
Sets 18:23:18 0° 344° (NNW) 3,342 7.5 -22.5°
